Volver al catálogo

STARLINK-32592

ActivoComunicacionesVLEO
NORAD 62035·PAYLOAD·🇺🇸 United States

Lanzado Nov 21, 2024 desde Cape Canaveral Space Force Station

Loading…

Próximos Pases (próximas 24 horas)

TLE

ActualizadoSource: CelesTrak SupGP

Época: Sep 15, 2026, 03:17 UTC

1 62035C 24216D   26258.13729167 -.00022605  00000+0 -81867-3 0  2587
2 62035  42.9998 273.7731 0001360 265.4612 116.2110 15.27592326    10

Sigue STARLINK-32592 en tiempo real con AllMySat

Download on the App Store